Eagle River, WI

10:33 PM CDT on May 27, 2017 (GMT -0500)
Eagle River Union

Weather History for KEGV - April, 2013

Change the Weather History Date:

Wednesday, April 10, 2013

  Actual Average Record
Temperature  
Mean Temperature 34 °F -  
Max Temperature 39 °F 40 °F 71 °F (2011)
Min Temperature 28 °F 22 °F 10 °F (1997)
Degree Days  
Heating Degree Days 32    
Moisture  
Dew Point 17 °F    
Average Humidity 54    
Maximum Humidity 74    
Minimum Humidity 33    
Precipitation  
Precipitation 0.00 in - - ()
Sea Level Pressure  
Sea Level Pressure 30.09 in    
Wind  
Wind Speed 10 mph (ENE)    
Max Wind Speed 16 mph    
Max Gust Speed 23 mph    
Visibility 10 miles    
Events      
Averages and records for this station are not official NWS values.
T = Trace of Precipitation, MM = Missing Value Source: NWS Daily Summary

Daily Weather History Graph

Daily Weather History Graph

Search for Another Location

Airport or City:

Trip Planner

Search our weather history database for the weather conditions in past years. The results will help you decide how hot, cold, wet, or windy it might be!

Date:

Astronomy

Apr. 10, 2013 Rise Set
Actual Time 6:19 AM CDT 7:37 PM CDT
Civil Twilight 5:48 AM CDT 8:08 PM CDT
Nautical Twilight 5:11 AM CDT 8:45 PM CDT
Astronomical Twilight 4:32 AM CDT 9:25 PM CDT
Moon 6:14 AM CDT (4/10) 8:17 PM CDT (4/10)
Length of Visible Light 14h 19m
Length of Day
13h 18m
New Moon, 0% of the Moon is Illuminated
Apr 10
New Moon
Apr 18
First Quarter
Apr 25
Full
May 2
Last Quarter
May 9
New

Hourly Weather History & Observations

Time (CDT) Temp. Windchill Dew Point Humidity Pressure Visibility Wind Dir Wind Speed Gust Speed Precip Events Conditions
12:15 AM 28.4 °F 18.5 °F 19.4 °F 69% 30.10 in 10.0 mi NE 11.5 mph 19.6 mph N/A   Scattered Clouds
12:35 AM 28.4 °F 19.7 °F 19.4 °F 69% 30.13 in 10.0 mi NE 9.2 mph - N/A   Mostly Cloudy
12:55 AM 28.4 °F 20.4 °F 19.4 °F 69% 30.14 in 10.0 mi NE 8.1 mph - N/A   Overcast
1:15 AM 28.4 °F 22.2 °F 19.4 °F 69% 30.15 in 10.0 mi ENE 5.8 mph - N/A   Overcast
1:55 AM 28.4 °F 21.2 °F 19.4 °F 69% 30.15 in 10.0 mi ENE 6.9 mph - N/A   Overcast
2:15 AM 28.4 °F 23.3 °F 19.4 °F 69% 30.15 in 10.0 mi NE 4.6 mph - N/A   Overcast
2:35 AM 28.4 °F 19.7 °F 19.4 °F 69% 30.14 in 10.0 mi NE 9.2 mph - N/A   Mostly Cloudy
2:55 AM 28.4 °F 20.4 °F 19.4 °F 69% 30.14 in 10.0 mi ENE 8.1 mph - N/A   Scattered Clouds
3:15 AM 28.4 °F 20.4 °F 19.4 °F 69% 30.13 in 10.0 mi NE 8.1 mph - N/A   Clear
3:35 AM 28.4 °F 19.1 °F 19.4 °F 69% 30.13 in 10.0 mi NE 10.4 mph - N/A   Clear
3:55 AM 28.4 °F 20.4 °F 19.4 °F 69% 30.13 in 10.0 mi NE 8.1 mph - N/A   Clear
4:15 AM 28.4 °F 19.1 °F 19.4 °F 69% 30.10 in 10.0 mi ENE 10.4 mph - N/A   Clear
4:35 AM 28.4 °F 19.1 °F 19.4 °F 69% 30.06 in 10.0 mi ENE 10.4 mph 17.3 mph N/A   Clear
4:55 AM 28.4 °F 19.1 °F 19.4 °F 69% 30.06 in 10.0 mi ENE 10.4 mph - N/A   Clear
5:15 AM 28.4 °F 20.4 °F 21.2 °F 74% 30.06 in 10.0 mi ENE 8.1 mph - N/A   Clear
5:35 AM 28.4 °F 17.5 °F 21.2 °F 74% 30.04 in 10.0 mi NE 13.8 mph 17.3 mph N/A   Clear
5:55 AM 28.4 °F 18.5 °F 21.2 °F 74% 30.07 in 10.0 mi NE 11.5 mph 18.4 mph N/A   Clear
6:15 AM 28.4 °F 20.4 °F 21.2 °F 74% 30.11 in 10.0 mi ENE 8.1 mph - N/A   Clear
6:35 AM 28.4 °F 19.7 °F 21.2 °F 74% 30.13 in 10.0 mi NNE 9.2 mph - N/A   Clear
6:55 AM 28.4 °F 19.7 °F 21.2 °F 74% 30.14 in 10.0 mi NE 9.2 mph - N/A   Clear
7:15 AM 28.4 °F 19.7 °F 21.2 °F 74% 30.14 in 10.0 mi NNE 9.2 mph 17.3 mph N/A   Clear
7:35 AM 28.4 °F 21.2 °F 21.2 °F 74% 30.15 in 10.0 mi NNE 6.9 mph - N/A   Scattered Clouds
7:55 AM 28.4 °F 19.1 °F 21.2 °F 74% 30.11 in 10.0 mi NE 10.4 mph - N/A   Scattered Clouds
8:15 AM 28.4 °F 18.0 °F 21.2 °F 74% 30.06 in 10.0 mi ENE 12.7 mph - N/A   Clear
8:35 AM 30.2 °F 19.3 °F 21.2 °F 69% 30.05 in 10.0 mi ENE 15.0 mph 19.6 mph N/A   Clear
8:55 AM 30.2 °F 19.3 °F 21.2 °F 69% 30.08 in 10.0 mi ENE 15.0 mph 23.0 mph N/A   Clear
9:15 AM 32.0 °F 22.1 °F 19.4 °F 60% 30.07 in 10.0 mi ENE 13.8 mph 23.0 mph N/A   Clear
9:35 AM 32.0 °F 22.5 °F 19.4 °F 60% 30.10 in 10.0 mi ENE 12.7 mph - N/A   Clear
9:55 AM 32.0 °F 21.2 °F 19.4 °F 60% 30.11 in 10.0 mi NE 16.1 mph - N/A   Clear
10:15 AM 32.0 °F 22.5 °F 19.4 °F 60% 30.12 in 10.0 mi ENE 12.7 mph 16.1 mph N/A   Clear
10:35 AM 33.8 °F 24.3 °F 19.4 °F 56% 30.12 in 10.0 mi NE 13.8 mph 18.4 mph N/A   Clear
10:55 AM 33.8 °F 26.4 °F 19.4 °F 56% 30.10 in 10.0 mi ENE 9.2 mph - N/A   Clear
11:15 AM 35.6 °F 27.1 °F 17.6 °F 48% 30.10 in 10.0 mi ENE 12.7 mph 16.1 mph N/A   Clear
11:35 AM 35.6 °F 27.5 °F 17.6 °F 48% 30.10 in 10.0 mi ENE 11.5 mph - N/A   Clear
11:55 AM 35.6 °F 26.2 °F 17.6 °F 48% 30.08 in 10.0 mi NE 15.0 mph 20.7 mph N/A   Clear
12:15 PM 37.4 °F 29.3 °F 15.8 °F 41% 30.08 in 10.0 mi ENE 12.7 mph 19.6 mph N/A   Clear
12:35 PM 37.4 °F 29.8 °F 15.8 °F 41% 30.10 in 10.0 mi NE 11.5 mph - N/A   Clear
12:55 PM 37.4 °F 30.8 °F 15.8 °F 41% 30.12 in 10.0 mi ENE 9.2 mph - N/A   Clear
1:15 PM 37.4 °F 30.3 °F 15.8 °F 41% 30.11 in 10.0 mi NE 10.4 mph - N/A   Clear
1:35 PM 37.4 °F 32.8 °F 15.8 °F 41% 30.11 in 10.0 mi ENE 5.8 mph - N/A   Clear
1:55 PM 37.4 °F 30.3 °F 15.8 °F 41% 30.09 in 10.0 mi ENE 10.4 mph - N/A   Clear
2:15 PM 37.4 °F 29.3 °F 14.0 °F 38% 30.08 in 10.0 mi NE 12.7 mph 18.4 mph N/A   Clear
2:35 PM 37.4 °F 29.8 °F 14.0 °F 38% 30.07 in 10.0 mi ENE 11.5 mph 18.4 mph N/A   Clear
2:55 PM 37.4 °F 28.5 °F 15.8 °F 41% 30.07 in 10.0 mi ENE 15.0 mph 19.6 mph N/A   Scattered Clouds
3:15 PM 37.4 °F 28.9 °F 14.0 °F 38% 30.07 in 10.0 mi ENE 13.8 mph 18.4 mph N/A   Mostly Cloudy
3:35 PM 39.2 °F 32.0 °F 14.0 °F 36% 30.06 in 10.0 mi ENE 11.5 mph - N/A   Overcast
3:55 PM 37.4 °F 30.3 °F 14.0 °F 38% 30.07 in 10.0 mi East 10.4 mph - N/A   Overcast
4:15 PM 37.4 °F 29.3 °F 12.2 °F 36% 30.06 in 10.0 mi ENE 12.7 mph 16.1 mph N/A   Overcast
4:35 PM 37.4 °F 29.8 °F 12.2 °F 36% 30.06 in 10.0 mi ENE 11.5 mph 18.4 mph N/A   Overcast
4:55 PM 37.4 °F 29.3 °F 14.0 °F 38% 30.06 in 10.0 mi ENE 12.7 mph - N/A   Overcast
5:15 PM 37.4 °F 30.8 °F 14.0 °F 38% 30.06 in 10.0 mi ENE 9.2 mph - N/A   Overcast
5:35 PM 37.4 °F 31.4 °F 14.0 °F 38% 30.07 in 10.0 mi NE 8.1 mph - N/A   Overcast
5:55 PM 37.4 °F 29.8 °F 12.2 °F 36% 30.06 in 10.0 mi ENE 11.5 mph - N/A   Overcast
6:15 PM 37.4 °F 31.4 °F 10.4 °F 33% 30.06 in 10.0 mi NE 8.1 mph - N/A   Overcast
6:35 PM 35.6 °F 28.6 °F 17.6 °F 48% 30.06 in 10.0 mi NE 9.2 mph - N/A   Overcast
6:55 PM 35.6 °F 29.2 °F 15.8 °F 44% 30.05 in 10.0 mi ENE 8.1 mph - N/A   Overcast
7:15 PM 35.6 °F 26.6 °F 12.2 °F 38% 30.03 in 10.0 mi ENE 13.8 mph 18.4 mph N/A   Overcast
7:35 PM 35.6 °F 28.6 °F 12.2 °F 38% 30.04 in 10.0 mi ENE 9.2 mph - N/A   Overcast
7:55 PM 33.8 °F 25.8 °F 12.2 °F 41% 30.03 in 10.0 mi NE 10.4 mph 17.3 mph N/A   Overcast
8:15 PM 33.8 °F 25.8 °F 12.2 °F 41% 30.03 in 10.0 mi ENE 10.4 mph - N/A   Mostly Cloudy
8:35 PM 33.8 °F 25.8 °F 12.2 °F 41% 30.03 in 10.0 mi NE 10.4 mph - N/A   Scattered Clouds
8:55 PM 32.0 °F 23.6 °F 12.2 °F 44% 30.04 in 10.0 mi ENE 10.4 mph - N/A   Clear
9:15 PM 32.0 °F 23.0 °F 12.2 °F 44% 30.06 in 10.0 mi ENE 11.5 mph 18.4 mph N/A   Clear
9:35 PM 32.0 °F 22.5 °F 12.2 °F 44% 30.07 in 10.0 mi ENE 12.7 mph - N/A   Clear
9:55 PM 32.0 °F 23.6 °F 12.2 °F 44% 30.08 in 10.0 mi East 10.4 mph 17.3 mph N/A   Clear
10:15 PM 32.0 °F 23.0 °F 14.0 °F 48% 30.07 in 10.0 mi ENE 11.5 mph 18.4 mph N/A   Clear
10:35 PM 32.0 °F 23.0 °F 14.0 °F 48% 30.07 in 10.0 mi ENE 11.5 mph - N/A   Scattered Clouds
10:55 PM 32.0 °F 22.1 °F 14.0 °F 48% 30.06 in 10.0 mi ENE 13.8 mph 20.7 mph N/A   Scattered Clouds
11:15 PM 32.0 °F 23.0 °F 14.0 °F 48% 30.04 in 10.0 mi ENE 11.5 mph 19.6 mph N/A   Clear
11:35 PM 30.2 °F 20.2 °F 14.0 °F 51% 30.04 in 10.0 mi ENE 12.7 mph 16.1 mph N/A   Clear
11:55 PM 30.2 °F 20.2 °F 14.0 °F 51% 30.03 in 10.0 mi East 12.7 mph 18.4 mph N/A   Clear